CZ-6A DEB

Satellite information

Favourite Embed

Satellite Type and Status

DEBRISIN ORBIT

Key statistics

Satellite CZ-6A DEB at a glance.

Uptime

1128

Days in orbit

Revolutions

≈ 14.4

Per day

Orbit

SSO

Sun Synchronous Orbit

Inclination

98.8

Latest

Satellite identification and parameters

Extended collection of information and parameters for CZ-6A DEB.

Object identification

Identified? True

Debris? True

Object name: CZ-6A DEB

International designator: 2022-151AAJ

Object number (NORAD): 55886

Object ID (CCSDS): 55886

Country: PEOPLES REPUBLIC OF CHINA (PRC)

Current information (Y/N): Y

RCS size: SMALL

Orbital parameters

Period: 99.876 minutes

Inclination: 98.7569 deg

SMA: 7130.75 km

Apoapsis: 782.253 km

Periapsis: 722.976 km

RAAN: 18.1316 deg

Eccentricy: 0.00415644

Argument of periapsis: 129.2958 deg

Mean anomaly: 231.1928 deg

Mean motion: 14.41783233 rev/day

Mean motion (dot): 0.00009557 rev/day2

B* drag term: 0.0029063332 1/REarth

Two-line elements (TLE)

Creation date: Dec. 11, 2025, 7:14 p.m.

Reference frame: TEME

Reference center: EARTH

Epoch: Dec. 11, 2025, 1:16 p.m. UTC

TLE line 0: 0 CZ-6A DEB

TLE line 1: 1 55886U 22151AAJ 25345.55313919 .00009557 00000-0 29063-2 0 9996

TLE line 2: 2 55886 98.7569 18.1316 0041564 129.2958 231.1928 14.41783233 69337

Live tracking on map

Real-time ground track for satellite CZ-6A DEB.

In-orbit conjunctions

A list of the most updated potential collisions computed for object CZ-6A DEB.

Target Orbit TCA Probability of collision Miss distance Type
COSMOS 1110 LEO 2025-09-27 12:29:20 0.0001104883 165.0 (m) PAYLOAD
THOR BURNER 2 R/B SSO 2025-04-24 11:52:20 0.001344211 11.0 (m) ROCKET BODY
DMSP 5D-2 F9 (USA 29) SSO 2025-02-27 16:58:00 0.0002489984 820.0 (m) PAYLOAD
PSLV R/B LEO 2025-02-06 10:09:24 0.0002300679 730.0 (m) ROCKET BODY

Associated space launch

Chinese satellite reported for atmospheric/ocean/environmental/spatial parameter research purposes, details TBD.

CZ-6A DEB was lifted into orbit during the mission ‘Long March 6A | Yunhai 3’, on board a Long March 6A space rocket.

The launch took place on Nov. 11, 2022, 10:52 p.m. from Launch Complex 9A.

For more information about the launch, click the button.

Launch to space Long March 6A | Yunhai 3
Long March 6A | Yunhai 3

Agency: N/A

Status: Launch Successful

Launch date: Nov. 11, 2022, 10:52 p.m. UTC

Rocket: Long March 6A

Launch pad: Launch Complex 9A

Location: Taiyuan Satellite Launch Center, People's Republic of China

...

Latest news about this satellite

There are no fresh news available about this satellite. Check back as we update our databases every day.


Newsletter sign-up

Weekly statistics, charts and insights to help you stay on top of the space industry.